Location: *
(33.6842°N, 117.7925°W)
Time: 18:38:51
(UTC+00:00)

CZ-4B R/B - Pass Details

Date: 21 October 2019
Orbit: 808 x 882 km, 99.1° (Epoch: 13 November)

Event Time Altitude Azimuth Distance (km) Brightness Sun altitude
Rises 13:22:24 0° 12° (NNE) 3,333 6.4 -8.7°
Reaches altitude 10° 13:24:44 10° 12° (NNE) 2,396 5.6 -8.2°
Maximum altitude 13:30:01 86° 285° (WNW) 815 3.1 -7.1°
Drops below altitude 10° 13:35:19 10° 196° (SSW) 2,393 5.5 -6.0°
Sets 13:37:39 0° 196° (SSW) 3,327 6.2 -5.6°
